| time (UTC) | temp C | wind direction | speed KPH | gust KPH | rain 1hr cm | rain 24hr cm | rain mn cm | humidity % | barometer mb |
| 20260504184504 | 22 | 267 | 9.7 | 27.4 | 0.00 | 0.03 | 0.00 | 54 | 1006.8 |
| 20260504184004 | 22 | 235 | 16.1 | 29.0 | 0.00 | 0.03 | 0.00 | 53 | 1006.8 |
| 20260504183505 | 22 | 233 | 12.9 | 29.0 | 0.00 | 0.03 | 0.00 | 53 | 1006.7 |
| 20260504183004 | 22 | 250 | 14.5 | 27.4 | 0.00 | 0.03 | 0.00 | 52 | 1006.5 |
| 20260504182505 | 22 | 285 | 11.3 | 22.5 | 0.00 | 0.03 | 0.00 | 53 | 1006.4 |
| 20260504182004 | 22 | 230 | 11.3 | 29.0 | 0.00 | 0.03 | 0.00 | 51 | 1006.4 |
| 20260504181503 | 22 | 191 | 17.7 | 32.2 | 0.00 | 0.03 | 0.00 | 53 | 1006.5 |
| 20260504181004 | 22 | 231 | 20.9 | 35.4 | 0.00 | 0.03 | 0.00 | 52 | 1006.4 |
| 20260504175505 | 22 | 238 | 14.5 | 29.0 | 0.00 | 0.03 | 0.00 | 53 | 1006.5 |
| 20260504175004 | 22 | 250 | 14.5 | 22.5 | 0.00 | 0.03 | 0.00 | 52 | 1006.5 |
| 20260504174504 | 22 | 254 | 11.3 | 27.4 | 0.00 | 0.03 | 0.00 | 53 | 1006.6 |
| 20260504174004 | 22 | 251 | 6.4 | 25.7 | 0.00 | 0.03 | 0.00 | 52 | 1006.6 |
| 20260504173504 | 22 | 252 | 8.0 | 22.5 | 0.00 | 0.03 | 0.00 | 54 | 1006.6 |
| 20260504173004 | 22 | 257 | 14.5 | 22.5 | 0.00 | 0.03 | 0.00 | 52 | 1006.7 |
| 20260504172504 | 22 | 232 | 9.7 | 20.9 | 0.00 | 0.03 | 0.00 | 53 | 1006.7 |
| 20260504172004 | 21 | 277 | 9.7 | 22.5 | 0.00 | 0.03 | 0.00 | 54 | 1006.8 |
| 20260504171504 | 21 | 231 | 9.7 | 22.5 | 0.00 | 0.03 | 0.00 | 54 | 1006.8 |
| 20260504171003 | 21 | 243 | 16.1 | 29.0 | 0.00 | 0.03 | 0.00 | 54 | 1006.9 |
| 20260504170504 | 21 | 226 | 11.3 | 20.9 | 0.00 | 0.03 | 0.00 | 55 | 1006.8 |
| 20260504151005 | 17 | 244 | 14.5 | 22.5 | 0.00 | 0.03 | 0.00 | 63 | 1008.1 |
| 20260504150505 | 17 | 227 | 11.3 | 24.1 | 0.00 | 0.03 | 0.00 | 62 | 1008.0 |
| 20260504141004 | 15 | 246 | 9.7 | 19.3 | 0.00 | 0.03 | 0.00 | 63 | 1008.4 |
| 20260504140505 | 15 | 220 | 9.7 | 22.5 | 0.00 | 0.03 | 0.00 | 64 | 1008.5 |
| 20260504130504 | 13 | 215 | 11.3 | 20.9 | 0.00 | 0.03 | 0.00 | 65 | 1009.0 |
| 20260504110504 | 10 | 228 | 4.8 | 9.7 | 0.00 | 0.03 | 0.00 | 69 | 1008.7 |
| 20260504100504 | 10 | 223 | 6.4 | 12.9 | 0.00 | 0.03 | 0.00 | 67 | 1009.1 |
| 20260504082004 | 10 | 222 | 8.0 | 9.7 | 0.00 | 0.03 | 0.00 | 66 | 1010.0 |
| 20260504081004 | 11 | 211 | 4.8 | 19.3 | 0.00 | 0.03 | 0.00 | 65 | 1010.0 |
| 20260504080504 | 10 | 210 | 4.8 | 14.5 | 0.00 | 0.03 | 0.00 | 65 | 1010.1 |
| 20260504050503 | 11 | 218 | 4.8 | 9.7 | 0.00 | 0.03 | 0.00 | 62 | 1012.0 |
| 20260504050004 | 11 | 208 | 6.4 | 11.3 | 0.00 | 0.03 | 0.00 | 63 | 1012.0 |
| 20260504045504 | 11 | 213 | 8.0 | 14.5 | 0.00 | 0.03 | 0.00 | 63 | 1012.0 |
| 20260504045004 | 11 | 227 | 4.8 | 9.7 | 0.00 | 0.03 | 0.00 | 63 | 1012.1 |
| 20260504044504 | 11 | 219 | 6.4 | 9.7 | 0.00 | 0.03 | 0.00 | 64 | 1012.1 |
| 20260504044004 | 11 | 208 | 4.8 | 9.7 | 0.00 | 0.03 | 0.00 | 64 | 1012.0 |
| 20260504043004 | 11 | 223 | 4.8 | 14.5 | 0.00 | 0.03 | 0.00 | 64 | 1012.1 |
| 20260504042504 | 11 | 211 | 3.2 | 8.0 | 0.00 | 0.03 | 0.00 | 65 | 1012.2 |
| 20260504042004 | 11 | 200 | 4.8 | 9.7 | 0.00 | 0.03 | 0.00 | 65 | 1012.3 |
| 20260504041504 | 11 | 220 | 3.2 | 9.7 | 0.00 | 0.03 | 0.00 | 65 | 1012.4 |
| 20260504040504 | 11 | 204 | 4.8 | 9.7 | 0.00 | 0.03 | 0.00 | 66 | 1012.4 |
| 20260504040004 | 11 | 196 | 4.8 | 9.7 | 0.00 | 0.03 | 0.00 | 66 | 1012.5 |
| 20260504035504 | 11 | 198 | 4.8 | 9.7 | 0.00 | 0.03 | 0.03 | 67 | 1012.5 |
| 20260504035003 | 11 | 204 | 4.8 | 9.7 | 0.00 | 0.03 | 0.03 | 67 | 1012.6 |
| 20260504034504 | 11 | 194 | 3.2 | 8.0 | 0.00 | 0.03 | 0.03 | 67 | 1012.6 |
| 20260504034004 | 11 | 185 | 4.8 | 9.7 | 0.00 | 0.03 | 0.03 | 67 | 1012.7 |
| 20260504033504 | 10 | 178 | 4.8 | 8.0 | 0.00 | 0.03 | 0.03 | 68 | 1012.8 |
| 20260504033004 | 10 | 189 | 3.2 | 8.0 | 0.00 | 0.03 | 0.03 | 67 | 1012.8 |
| 20260504032504 | 10 | 183 | 4.8 | 9.7 | 0.00 | 0.03 | 0.03 | 67 | 1012.9 |
| 20260504032004 | 10 | 198 | 4.8 | 9.7 | 0.00 | 0.03 | 0.03 | 67 | 1012.9 |
| 20260504031503 | 10 | 202 | 3.2 | 11.3 | 0.00 | 0.03 | 0.03 | 67 | 1012.9 |
| 20260504031004 | 10 | 187 | 4.8 | 9.7 | 0.00 | 0.03 | 0.03 | 67 | 1013.0 |
| 20260504030505 | 10 | 196 | 4.8 | 9.7 | 0.00 | 0.03 | 0.03 | 67 | 1013.1 |
| 20260504025505 | 10 | 197 | 4.8 | 9.7 | 0.00 | 0.03 | 0.03 | 67 | 1013.1 |
| 20260504025005 | 10 | 206 | 4.8 | 9.7 | 0.00 | 0.03 | 0.03 | 67 | 1013.2 |
| 20260504024505 | 10 | 198 | 4.8 | 9.7 | 0.00 | 0.03 | 0.03 | 68 | 1013.2 |
| 20260504024004 | 10 | 209 | 3.2 | 8.0 | 0.00 | 0.03 | 0.03 | 69 | 1013.2 |
| 20260504023505 | 10 | 185 | 3.2 | 8.0 | 0.00 | 0.03 | 0.03 | 68 | 1013.2 |
| 20260504022505 | 10 | 164 | 6.4 | 11.3 | 0.00 | 0.03 | 0.03 | 69 | 1013.2 |
| 20260504021504 | 10 | 173 | 4.8 | 9.7 | 0.00 | 0.03 | 0.03 | 70 | 1013.2 |
| 20260504021005 | 10 | 190 | 3.2 | 9.7 | 0.00 | 0.03 | 0.03 | 71 | 1013.3 |
| 20260504020504 | 10 | 183 | 6.4 | 12.9 | 0.00 | 0.03 | 0.03 | 71 | 1013.4 |
| 20260504020005 | 10 | 223 | 3.2 | 8.0 | 0.00 | 0.03 | 0.03 | 72 | 1013.4 |
| 20260504015505 | 10 | 173 | 4.8 | 11.3 | 0.00 | 0.03 | 0.03 | 73 | 1013.3 |
| 20260504015005 | 10 | 166 | 4.8 | 9.7 | 0.00 | 0.03 | 0.03 | 73 | 1013.3 |
| 20260504014505 | 10 | 183 | 4.8 | 9.7 | 0.00 | 0.03 | 0.03 | 74 | 1013.3 |
| 20260504014004 | 9 | 163 | 3.2 | 9.7 | 0.00 | 0.03 | 0.03 | 76 | 1013.3 |
| 20260504013505 | 9 | 171 | 1.6 | 8.0 | 0.00 | 0.03 | 0.03 | 77 | 1013.3 |
| 20260504013005 | 9 | 161 | 1.6 | 3.2 | 0.00 | 0.03 | 0.03 | 77 | 1013.3 |
| 20260504012504 | 9 | 171 | 3.2 | 4.8 | 0.00 | 0.03 | 0.03 | 77 | 1013.3 |
| 20260504012005 | 9 | 167 | 1.6 | 3.2 | 0.00 | 0.03 | 0.03 | 78 | 1013.4 |
| 20260504011505 | 9 | 192 | 3.2 | 4.8 | 0.00 | 0.03 | 0.03 | 78 | 1013.3 |
| 20260504011005 | 9 | 178 | 0.0 | 0.0 | 0.00 | 0.03 | 0.03 | 78 | 1013.5 |
| 20260504010505 | 9 | 174 | 0.0 | 0.0 | 0.00 | 0.03 | 0.03 | 78 | 1013.5 |
| 20260504010005 | 9 | 182 | 1.6 | 4.8 | 0.00 | 0.03 | 0.03 | 78 | 1013.4 |
| 20260504005504 | 9 | 122 | 1.6 | 3.2 | 0.00 | 0.03 | 0.03 | 78 | 1013.3 |
| 20260504005005 | 9 | 142 | 1.6 | 3.2 | 0.00 | 0.03 | 0.03 | 78 | 1013.4 |
| 20260504004504 | 9 | 144 | 1.6 | 8.0 | 0.00 | 0.03 | 0.03 | 77 | 1013.3 |
| 20260504004004 | 9 | 142 | 3.2 | 8.0 | 0.00 | 0.03 | 0.03 | 77 | 1013.3 |
| 20260504003504 | 9 | 161 | 3.2 | 8.0 | 0.00 | 0.03 | 0.03 | 78 | 1013.5 |
| 20260504002505 | 9 | 100 | 1.6 | 4.8 | 0.00 | 0.03 | 0.03 | 79 | 1013.4 |
| 20260504001505 | 10 | 149 | 1.6 | 3.2 | 0.00 | 0.03 | 0.03 | 78 | 1013.8 |
| 20260504001005 | 10 | 199 | 0.0 | 1.6 | 0.00 | 0.03 | 0.03 | 78 | 1013.7 |
| 20260504000504 | 10 | 135 | 0.0 | 1.6 | 0.00 | 0.03 | 0.03 | 77 | 1013.6 |
| 20260504000004 | 10 | 131 | 3.2 | 8.0 | 0.00 | 0.03 | 0.03 | 77 | 1013.6 |
| 20260503235505 | 10 | 166 | 3.2 | 4.8 | 0.00 | 0.03 | 0.03 | 78 | 1013.6 |
| 20260503235004 | 10 | 131 | 3.2 | 8.0 | 0.00 | 0.03 | 0.03 | 78 | 1013.6 |
| 20260503234504 | 10 | 146 | 3.2 | 8.0 | 0.00 | 0.03 | 0.03 | 78 | 1013.4 |
| 20260503234005 | 10 | 130 | 3.2 | 9.7 | 0.00 | 0.03 | 0.03 | 78 | 1013.5 |
| 20260503233505 | 10 | 126 | 1.6 | 8.0 | 0.00 | 0.03 | 0.03 | 79 | 1013.6 |
| 20260503233004 | 10 | 144 | 3.2 | 4.8 | 0.03 | 0.03 | 0.03 | 79 | 1013.7 |
| 20260503232504 | 10 | 139 | 1.6 | 8.0 | 0.03 | 0.03 | 0.03 | 80 | 1013.7 |
| 20260503231505 | 9 | 135 | 1.6 | 4.8 | 0.03 | 0.03 | 0.03 | 80 | 1013.8 |
| 20260503231004 | 9 | 131 | 3.2 | 8.0 | 0.03 | 0.03 | 0.03 | 80 | 1013.9 |
| 20260503230504 | 9 | 142 | 1.6 | 4.8 | 0.03 | 0.03 | 0.03 | 80 | 1014.0 |
| 20260503230004 | 9 | 147 | 0.0 | 0.0 | 0.03 | 0.03 | 0.03 | 80 | 1014.1 |
| 20260503225504 | 9 | 120 | 0.0 | 0.0 | 0.03 | 0.03 | 0.03 | 80 | 1014.2 |
| 20260503225004 | 9 | 104 | 1.6 | 8.0 | 0.03 | 0.03 | 0.03 | 80 | 1014.3 |
| 20260503224505 | 9 | 132 | 1.6 | 4.8 | 0.03 | 0.03 | 0.03 | 78 | 1014.5 |
| 20260503224004 | 9 | 109 | 0.0 | 3.2 | 0.03 | 0.03 | 0.03 | 77 | 1014.8 |
| 20260503223505 | 9 | 164 | 1.6 | 3.2 | 0.03 | 0.03 | 0.03 | 77 | 1015.2 |
| 20260503223004 | 9 | 209 | 0.0 | 4.8 | 0.00 | 0.00 | 0.00 | 77 | 1015.6 |
| 20260503222504 | 10 | 263 | 3.2 | 9.7 | 0.00 | 0.00 | 0.00 | 75 | 1015.7 |
| 20260503222005 | 10 | 259 | 4.8 | 9.7 | 0.00 | 0.00 | 0.00 | 73 | 1015.8 |
| 20260503221505 | 10 | 244 | 8.0 | 20.9 | 0.00 | 0.00 | 0.00 | 70 | 1015.8 |
| 20260503221005 | 10 | 241 | 8.0 | 19.3 | 0.00 | 0.00 | 0.00 | 67 | 1015.8 |
| 20260503220505 | 11 | 294 | 11.3 | 27.4 | 0.00 | 0.00 | 0.00 | 64 | 1015.7 |
| 20260503220005 | 12 | 236 | 4.8 | 27.4 | 0.00 | 0.00 | 0.00 | 59 | 1015.5 |
| 20260503215504 | 12 | 248 | 9.7 | 29.0 | 0.00 | 0.00 | 0.00 | 55 | 1015.5 |
| 20260503215005 | 12 | 250 | 8.0 | 22.5 | 0.00 | 0.00 | 0.00 | 53 | 1015.2 |
| 20260503214504 | 12 | 237 | 16.1 | 29.0 | 0.00 | 0.00 | 0.00 | 49 | 1015.0 |
| 20260503214004 | 13 | 261 | 9.7 | 32.2 | 0.00 | 0.00 | 0.00 | 48 | 1015.0 |
| 20260503213505 | 13 | 223 | 9.7 | 35.4 | 0.00 | 0.00 | 0.00 | 46 | 1014.9 |
| 20260503213004 | 14 | 323 | 11.3 | 29.0 | 0.00 | 0.00 | 0.00 | 42 | 1014.8 |
| 20260503212005 | 15 | 283 | 9.7 | 16.1 | 0.00 | 0.00 | 0.00 | 40 | 1014.7 |
| 20260503211504 | 15 | 244 | 8.0 | 19.3 | 0.00 | 0.00 | 0.00 | 40 | 1014.6 |
| 20260503211004 | 15 | 231 | 8.0 | 22.5 | 0.00 | 0.00 | 0.00 | 40 | 1014.7 |
| 20260503210504 | 15 | 262 | 11.3 | 24.1 | 0.00 | 0.00 | 0.00 | 40 | 1014.7 |
| 20260503210005 | 15 | 240 | 16.1 | 29.0 | 0.00 | 0.00 | 0.00 | 39 | 1014.7 |
| 20260503205504 | 15 | 240 | 9.7 | 16.1 | 0.00 | 0.00 | 0.00 | 39 | 1014.7 |
| 20260503205004 | 15 | 243 | 8.0 | 25.7 | 0.00 | 0.00 | 0.00 | 39 | 1014.8 |
| 20260503204504 | 15 | 228 | 17.7 | 29.0 | 0.00 | 0.00 | 0.00 | 38 | 1014.9 |
| 20260503204004 | 15 | 244 | 12.9 | 27.4 | 0.00 | 0.00 | 0.00 | 38 | 1015.0 |
| 20260503203004 | 15 | 181 | 4.8 | 12.9 | 0.00 | 0.00 | 0.00 | 40 | 1015.1 |
| 20260503202504 | 15 | 225 | 12.9 | 29.0 | 0.00 | 0.00 | 0.00 | 37 | 1015.0 |
| 20260503202004 | 16 | 227 | 11.3 | 27.4 | 0.00 | 0.00 | 0.00 | 37 | 1015.1 |
| 20260503201504 | 16 | 252 | 4.8 | 33.8 | 0.00 | 0.00 | 0.00 | 38 | 1015.2 |
| 20260503201004 | 16 | 220 | 9.7 | 33.8 | 0.00 | 0.00 | 0.00 | 36 | 1015.1 |
| 20260503200504 | 16 | 257 | 4.8 | 9.7 | 0.00 | 0.00 | 0.00 | 38 | 1015.1 |
| 20260503195504 | 16 | 216 | 11.3 | 24.1 | 0.00 | 0.00 | 0.00 | 36 | 1015.3 |
| 20260503195005 | 16 | 228 | 4.8 | 32.2 | 0.00 | 0.00 | 0.00 | 37 | 1015.2 |
| 20260503194504 | 16 | 224 | 8.0 | 22.5 | 0.00 | 0.00 | 0.00 | 37 | 1015.3 |
| 20260503194005 | 16 | 254 | 9.7 | 20.9 | 0.00 | 0.00 | 0.00 | 36 | 1015.4 |
| 20260503193505 | 16 | 245 | 8.0 | 22.5 | 0.00 | 0.00 | 0.00 | 38 | 1015.5 |
| 20260503193004 | 16 | 276 | 8.0 | 24.1 | 0.00 | 0.00 | 0.00 | 36 | 1015.6 |
| 20260503192504 | 16 | 251 | 4.8 | 19.3 | 0.00 | 0.00 | 0.00 | 35 | 1015.8 |
| 20260503191504 | 16 | 219 | 8.0 | 20.9 | 0.00 | 0.00 | 0.00 | 38 | 1015.7 |
| 20260503191004 | 16 | 213 | 12.9 | 24.1 | 0.00 | 0.00 | 0.00 | 37 | 1015.9 |
| 20260503190504 | 16 | 257 | 11.3 | 24.1 | 0.00 | 0.00 | 0.00 | 35 | 1016.0 |
| 20260503190004 | 16 | 221 | 9.7 | 19.3 | 0.00 | 0.00 | 0.00 | 36 | 1016.0 |
| 20260503185504 | 16 | 238 | 8.0 | 27.4 | 0.00 | 0.00 | 0.00 | 36 | 1016.2 |